Temp
10 11 13 14 15 13 14 14 13 10 10 10 10 10 9 9 9 9 9 9 10 9 9 9 8 8 7 7 7 8 8 8 8 8 8 8 8 7 6 5 8 8 7 8
11 12 13 14 14 13 14 15 14 12 11 11 10 11 9 9 10 9 8 9 10 10 8 9 8 8 8 7 8 9 8 9 9 9 8 8 7 8 7 8 8 8 8 8
13 13 13 13 13 13 14 15 13 12 11 11 11 12 10 9 8 9 8 9 9 10 9 9 8 8 8 7 7 9 9 8 9 8 9 8 8 8 7 7 9 9 8 8
13 13 13 12 13 13 15 14 13 12 13 13 12 15 11 10 8 10 9 9 10 9 10 9 9 8 8 7 7 9 9 9 9 9 8 9 9 8 6 7 6 9 9 8
13 13 12 12 13 13 12 12 12 13 14 15 16 15 13 11 9 10 10 10 10 11 10 9 10 8 9 8 8 10 9 9 9 9 8 9 9 7 6 6 8 8 9 9
12 12 12 13 13 13 13 13 13 13 14 16 17 16 12 11 11 10 11 9 10 10 10 11 10 9 8 8 7 9 10 9 9 9 9 9 8 8 6 6 9 8 7 9
12 12 12 12 13 13 13 13 15 16 17 17 15 16 12 11 13 12 11 11 10 11 11 11 10 10 9 8 8 7 10 10 9 9 9 8 8 7 8 9 8 6 6 6
14 13 12 12 13 14 13 14 16 15 12 13 12 16 11 13 12 12 12 10 10 10 11 11 11 10 10 9 8 7 10 10 10 9 9 9 9 9 8 8 7 6 7 6
15 14 13 13 12 13 14 14 15 14 15 15 11 13 13 13 12 12 12 12 10 11 10 10 11 10 9 9 8 7 8 10 10 9 9 9 9 9 8 8 8 8 8 8
13 14 13 13 12 13 13 14 15 15 14 14 11 7 12 12 12 11 12 12 11 10 11 10 11 10 9 9 8 7 7 10 10 9 9 9 9 9 9 9 9 9 8 9
13 13 12 13 13 11 13 13 14 15 14 11 12 9 12 11 11 11 11 11 11 10 10 10 10 10 9 9 9 8 7 8 10 9 9 9 10 9 9 9 9 9 9 9
13 13 13 13 12 11 10 10 12 12 14 9 8 7 10 10 10 11 10 10 10 10 9 9 10 10 9 9 9 8 8 7 9 9 9 9 9 9 9 9 9 9 9 9
12 13 14 14 13 11 12 11 9 10 8 11 9 10 10 10 13 13 9 9 8 10 10 9 10 9 9 8 9 8 8 7 8 9 9 9 9 9 9 8 10 9 10 9
11 12 13 13 10 9 10 11 12 11 8 10 12 11 9 10 12 13 12 10 9 10 9 9 9 9 9 9 10 8 8 8 8 8 8 8 9 9 9 9 9 9 9 9
11 12 12 12 11 10 11 11 12 13 12 11 10 10 8 12 12 13 12 10 8 9 10 8 8 7 8 8 9 9 9 8 8 8 8 8 9 9 9 9 9 9 9 9
11 11 11 12 12 12 13 13 13 12 12 10 8 7 10 11 12 12 11 10 9 9 9 8 7 8 9 7 8 8 8 8 8 8 8 8 9 9 9 9 9 9 10 10
10 11 11 12 11 10 12 13 13 12 11 11 11 8 9 9 11 11 10 10 10 9 8 8 8 8 8 8 8 8 8 8 8 8 8 8 8 8 8 8 9 9 9 9
10 10 10 11 8 9 9 11 11 10 11 11 10 9 8 10 10 10 10 10 10 9 8 8 8 8 8 8 8 8 8 7 8 8 8 8 8 9 8 8 9 8 8 8
10 10 11 11 12 12 10 10 10 11 11 9 10 9 7 9 10 10 9 9 9 9 9 9 8 9 8 7 7 8 8 9 7 8 8 8 8 9 8 8 8 8 8 8
10 9 9 11 12 12 9 8 9 9 10 10 9 9 8 8 9 7 8 9 8 9 9 9 8 8 8 7 8 8 7 7 7 7 8 8 8 7 8 8 8 8 8 8
9 9 10 10 11 11 9 9 9 9 10 8 8 7 7 7 7 8 8 8 8 8 8 8 8 8 8 8 8 7 7 7 7 7 7 7 7 7 7 7 8 8 8 8
9 9 10 10 11 10 8 8 9 7 7 7 7 6 7 8 7 7 7 7 8 8 8 8 8 8 8 8 8 8 8 8 8 6 7 7 7 7 7 7 7 8 8 8
9 9 10 9 7 7 7 7 7 7 7 6 6 5 7 7 7 7 7 7 7 7 8 8 8 8 8 8 8 8 7 8 7 7 7 7 6 6 7 7 8 8 7 8
7 8 8 8 8 7 7 6 6 6 7 6 5 5 6 5 6 7 6 6 6 7 6 7 7 7 8 8 8 8 8 7 7 7 7 7 6 6 7 7 7 7 8 7
6 5 7 8 7 7 6 6 6 6 5 5 4 4 5 6 6 6 6 6 6 6 6 6 6 7 7 8 8 8 8 8 8 7 7 7 7 7 7 7 7 7 7 6
8 8 8 8 6 6 7 6 6 5 5 4 4 3 5 5 6 6 6 6 6 6 6 6 6 6 7 7 7 7 6 7 7 6 6 6 6 7 7 7 7 7 7 7
Height
3161 3164 3164 3164 3164 3166 3167 3167 3166 3168 3168 3172 3171 3170 3169 3170 3173 3177 3180 3183 3189 3188 3192 3195 3198 3201 3197 3198 3198 3200 3202 3202 3204 3208 3211 3214 3217 3220 3222 3226 3225 3227 3229 3230
3162 3161 3162 3162 3164 3165 3166 3164 3167 3168 3169 3171 3170 3171 3169 3167 3169 3173 3175 3181 3183 3192 3190 3192 3195 3201 3202 3198 3198 3200 3202 3203 3206 3209 3213 3216 3219 3221 3223 3225 3226 3227 3229 3231
3158 3159 3160 3162 3164 3165 3165 3164 3167 3167 3168 3168 3168 3168 3166 3167 3168 3170 3172 3177 3180 3183 3187 3191 3194 3200 3202 3200 3198 3200 3202 3204 3206 3210 3213 3216 3218 3221 3224 3225 3226 3227 3229 3231
3157 3158 3159 3163 3164 3165 3161 3163 3166 3166 3168 3165 3165 3161 3164 3164 3163 3164 3167 3173 3179 3182 3189 3187 3193 3198 3201 3200 3199 3199 3202 3205 3208 3210 3214 3216 3218 3221 3223 3224 3226 3227 3229 3231
3155 3157 3160 3161 3161 3163 3163 3167 3166 3165 3164 3161 3157 3158 3156 3159 3160 3160 3163 3170 3177 3182 3187 3186 3193 3195 3201 3199 3198 3199 3202 3205 3207 3211 3213 3216 3218 3221 3222 3225 3225 3227 3228 3230
3155 3156 3158 3158 3160 3161 3163 3163 3164 3164 3161 3155 3150 3152 3157 3160 3160 3162 3163 3170 3175 3177 3184 3191 3191 3192 3197 3200 3199 3199 3201 3204 3207 3209 3211 3214 3217 3220 3224 3225 3224 3225 3229 3229
3154 3155 3156 3157 3158 3160 3162 3162 3155 3153 3148 3147 3149 3150 3153 3155 3159 3158 3159 3164 3172 3176 3184 3188 3189 3189 3194 3198 3200 3198 3199 3202 3205 3208 3211 3213 3216 3218 3220 3222 3223 3227 3231 3230
3148 3149 3152 3153 3155 3155 3157 3156 3149 3150 3160 3149 3153 3149 3155 3157 3157 3157 3158 3160 3167 3170 3178 3183 3189 3189 3191 3195 3198 3199 3197 3201 3203 3206 3209 3212 3214 3217 3219 3222 3224 3227 3229 3232
3145 3145 3149 3151 3153 3155 3153 3155 3149 3152 3149 3147 3155 3150 3153 3155 3155 3156 3158 3162 3163 3170 3175 3176 3183 3189 3190 3194 3195 3197 3196 3199 3202 3204 3207 3210 3213 3215 3218 3220 3222 3224 3226 3228
3147 3147 3148 3151 3153 3154 3153 3152 3151 3147 3151 3147 3156 3147 3149 3152 3153 3154 3157 3160 3163 3165 3170 3172 3180 3185 3189 3191 3194 3194 3195 3196 3200 3203 3205 3208 3210 3213 3215 3218 3218 3222 3224 3226
3148 3147 3151 3150 3152 3151 3152 3152 3149 3146 3145 3154 3150 3157 3153 3150 3151 3153 3156 3159 3160 3161 3162 3168 3175 3181 3185 3189 3190 3193 3194 3194 3196 3200 3203 3206 3208 3210 3212 3215 3217 3219 3221 3223
3148 3144 3145 3148 3149 3149 3148 3153 3150 3147 3145 3146 3157 3154 3156 3151 3149 3152 3155 3155 3154 3153 3155 3161 3166 3175 3179 3185 3187 3190 3192 3194 3195 3197 3200 3203 3205 3208 3210 3213 3214 3216 3218 3220
3148 3144 3141 3140 3145 3150 3148 3149 3156 3155 3158 3151 3154 3157 3156 3152 3148 3149 3152 3153 3151 3151 3153 3155 3160 3159 3172 3179 3180 3186 3189 3192 3193 3195 3196 3199 3202 3205 3207 3210 3212 3213 3215 3217
3149 3146 3143 3141 3150 3154 3151 3149 3145 3151 3160 3155 3150 3147 3149 3148 3142 3146 3148 3149 3151 3150 3152 3155 3153 3129 3146 3166 3171 3180 3184 3188 3190 3192 3194 3196 3198 3201 3203 3206 3208 3209 3211 3214
3150 3147 3144 3143 3144 3146 3146 3147 3144 3147 3145 3150 3147 3147 3136 3139 3142 3142 3147 3148 3150 3148 3148 3150 3150 3150 3158 3165 3169 3161 3176 3184 3187 3189 3191 3193 3195 3197 3200 3202 3204 3206 3207 3209
3147 3146 3145 3143 3141 3141 3142 3142 3141 3142 3146 3140 3148 3138 3139 3144 3140 3142 3145 3147 3149 3149 3149 3149 3151 3154 3159 3159 3164 3170 3173 3177 3180 3183 3186 3188 3190 3193 3196 3198 3200 3202 3203 3205
3145 3144 3143 3140 3139 3138 3138 3137 3138 3141 3143 3145 3147 3135 3139 3142 3143 3143 3144 3147 3149 3149 3149 3151 3152 3155 3155 3152 3158 3162 3166 3170 3174 3178 3181 3184 3186 3189 3191 3193 3195 3197 3199 3200
3144 3144 3143 3139 3143 3142 3137 3135 3136 3139 3138 3141 3144 3134 3139 3143 3143 3143 3145 3146 3147 3149 3150 3149 3151 3150 3151 3152 3150 3154 3158 3160 3165 3170 3174 3177 3180 3183 3185 3187 3189 3192 3193 3194
3141 3142 3139 3138 3134 3133 3135 3135 3137 3138 3139 3139 3142 3138 3143 3142 3142 3142 3143 3144 3146 3146 3146 3147 3148 3148 3150 3149 3149 3150 3150 3152 3156 3162 3165 3169 3173 3176 3180 3182 3183 3184 3186 3188
3138 3139 3139 3135 3132 3128 3132 3136 3136 3138 3139 3135 3133 3139 3141 3142 3145 3141 3142 3143 3143 3143 3143 3144 3144 3145 3145 3146 3147 3146 3141 3142 3146 3151 3154 3161 3165 3166 3171 3175 3174 3179 3179 3180
3135 3136 3135 3133 3133 3131 3133 3134 3135 3139 3142 3137 3138 3138 3141 3142 3141 3141 3141 3141 3141 3141 3141 3141 3141 3141 3142 3143 3143 3143 3142 3141 3141 3143 3148 3151 3156 3160 3162 3166 3168 3170 3171 3171
3131 3132 3130 3129 3129 3131 3133 3133 3137 3136 3137 3138 3138 3138 3138 3138 3139 3139 3139 3138 3138 3140 3139 3139 3139 3139 3139 3138 3138 3137 3138 3138 3137 3132 3137 3139 3148 3153 3155 3157 3161 3163 3162 3162
3130 3129 3126 3130 3129 3129 3130 3131 3132 3136 3137 3138 3137 3136 3136 3136 3136 3135 3136 3135 3134 3135 3135 3135 3137 3137 3137 3136 3135 3135 3134 3136 3136 3135 3133 3139 3143 3144 3149 3154 3155 3154 3154 3153
3126 3126 3127 3129 3128 3128 3130 3129 3131 3134 3136 3135 3134 3134 3134 3135 3134 3133 3132 3132 3132 3131 3132 3132 3132 3133 3134 3133 3133 3133 3134 3133 3136 3138 3140 3141 3143 3145 3147 3149 3149 3149 3147 3148
3120 3125 3125 3125 3125 3127 3128 3129 3130 3131 3132 3133 3131 3131 3131 3132 3131 3131 3130 3129 3128 3128 3129 3130 3130 3130 3130 3130 3130 3131 3132 3134 3135 3136 3138 3139 3140 3143 3144 3145 3145 3143 3143 3145
3120 3120 3121 3121 3120 3123 3125 3126 3128 3129 3130 3130 3130 3129 3128 3128 3127 3127 3126 3126 3126 3127 3126 3126 3126 3127 3127 3127 3128 3129 3130 3131 3133 3134 3135 3137 3139 3141 3142 3142 3142 3143 3143 3143
Wind_Speed
14 16 19 16 16 2 4 4 3 0 2 4 6 7 12 20 27 28 28 28 22 13 20 13 15 13 11 12 12 10 9 11 15 18 21 20 18 15 13 12 13 14 13 11
12 19 16 14 15 10 8 7 6 3 3 3 6 8 9 17 24 32 25 29 28 20 19 16 19 14 12 11 12 12 13 15 20 20 20 17 15 14 10 8 10 12 10 11
13 12 13 16 10 10 11 6 2 2 3 9 7 12 15 16 20 29 26 36 32 23 23 21 15 15 15 15 15 16 15 16 21 21 19 17 15 12 11 10 10 11 10 10
13 9 12 14 16 13 16 9 7 4 8 2 9 7 17 17 17 17 33 34 33 30 26 23 15 18 15 15 15 19 17 17 18 20 16 16 14 13 13 11 8 10 11 10
9 10 13 15 16 13 4 9 10 7 11 14 15 11 2 19 19 15 32 35 31 27 23 21 18 17 17 16 13 17 19 18 18 18 18 17 16 12 10 7 9 8 8 10
2 10 10 14 14 12 14 6 9 10 14 17 16 16 0 11 13 17 27 28 27 24 28 23 20 21 18 17 15 15 18 18 18 19 17 17 17 16 10 13 11 10 7 8
8 9 12 12 13 15 14 14 19 15 12 3 4 8 7 4 4 14 15 19 31 25 25 24 24 24 23 20 17 16 16 20 19 18 18 17 18 20 21 13 10 8 6 8
10 15 16 13 16 16 17 19 20 1 10 4 10 7 10 2 1 8 12 16 26 29 28 28 26 24 22 22 20 18 16 18 21 19 18 18 17 15 13 12 9 13 14 11
4 5 7 11 12 15 14 19 21 1 18 9 7 10 13 6 5 5 12 17 19 30 33 34 26 25 22 23 23 20 17 18 20 20 20 19 18 17 15 16 16 17 18 17
3 3 6 10 12 15 17 11 16 13 9 7 12 14 12 9 8 5 9 14 17 23 29 37 28 26 25 25 21 17 18 17 19 21 22 23 22 21 19 17 14 17 16 16
6 9 11 10 12 8 13 16 18 11 3 7 2 1 9 6 9 8 4 8 14 22 28 37 30 28 26 25 23 18 17 16 20 22 22 23 23 22 21 20 18 16 15 14
7 10 4 7 8 11 22 11 10 10 11 8 4 10 7 6 9 10 6 4 7 10 21 41 39 31 28 28 26 21 19 18 16 21 23 23 23 23 22 20 19 18 17 16
3 13 14 16 16 12 13 14 14 18 12 3 4 5 7 2 5 5 6 4 3 6 4 45 39 32 33 28 24 25 22 19 18 19 22 24 23 22 20 18 21 19 18 17
10 15 19 4 11 15 21 7 8 12 14 17 17 15 16 7 6 4 2 2 1 3 7 17 57 9 27 33 29 28 26 22 21 19 18 19 21 21 20 20 19 19 18 17
9 14 14 11 6 15 18 10 11 13 3 20 16 16 2 5 2 7 5 3 2 9 9 12 18 37 29 29 37 18 30 27 26 25 22 22 20 20 21 21 19 18 19 19
9 13 11 15 13 13 17 18 13 12 9 1 7 9 6 5 4 3 2 1 4 6 5 6 6 5 39 29 37 34 37 35 34 32 27 25 24 21 20 19 18 19 19 20
8 13 9 17 5 11 18 17 14 13 11 10 13 5 4 8 3 3 1 4 5 8 11 13 11 5 5 22 48 40 41 39 39 37 33 31 29 27 26 25 24 23 23 23
10 10 13 14 4 6 18 6 6 8 9 9 8 7 2 5 4 3 3 3 7 9 11 13 8 6 7 9 3 34 47 46 44 41 41 40 36 33 31 31 30 29 28 27
11 13 15 18 15 8 8 9 5 8 10 10 8 2 1 5 9 8 7 8 7 9 9 13 13 7 6 2 5 13 22 50 41 49 42 42 38 37 37 36 34 33 32 30
12 11 14 16 14 12 12 8 6 4 14 15 4 4 3 5 7 10 11 12 12 9 10 9 10 16 16 14 9 8 10 19 45 46 38 46 49 37 37 39 34 37 36 35
12 14 17 18 17 11 6 4 1 6 3 4 3 3 3 4 13 15 15 14 14 11 10 8 8 10 15 17 20 19 14 6 10 37 50 43 34 39 26 12 17 25 32 38
9 12 16 17 16 10 7 3 4 3 1 3 3 3 8 13 14 15 15 16 16 17 15 13 11 10 10 11 13 17 13 13 9 13 35 41 34 35 22 36 30 29 23 24
13 15 10 5 4 0 5 3 6 8 8 7 8 7 10 10 12 13 13 13 13 11 16 17 15 12 12 10 8 12 13 9 13 10 10 9 7 10 20 23 26 25 24 21
12 11 11 10 11 7 7 5 5 5 9 8 6 5 7 4 8 11 12 14 14 11 9 10 13 13 12 11 8 5 12 11 8 7 13 18 21 18 19 20 18 20 20 16
8 13 9 11 10 9 8 8 8 8 9 8 6 4 8 9 11 11 12 12 12 13 11 11 10 9 11 10 9 9 10 9 11 9 11 14 17 14 14 14 9 7 6 5
12 12 15 8 9 10 7 11 10 10 11 9 7 5 13 12 12 10 10 10 9 9 10 11 10 9 9 9 10 9 9 11 13 12 9 11 12 11 12 11 12 7 10 10
Wind_Direction
195 202 211 210 219 274 238 235 84 299 157 237 240 230 215 205 201 205 196 179 197 177 216 213 168 186 219 191 182 171 156 154 167 174 171 167 172 183 175 178 177 170 187 162
201 215 215 214 226 232 240 249 212 255 201 241 262 263 222 221 212 204 192 184 185 187 210 218 167 186 194 203 189 168 161 150 152 155 161 168 176 184 186 177 193 180 179 180
212 222 222 213 222 222 230 245 218 124 272 256 266 257 220 201 210 217 218 198 180 181 235 193 200 185 193 201 193 177 170 165 168 170 177 183 184 191 191 219 189 194 196 193
218 207 198 212 221 223 249 218 224 299 284 245 245 309 214 212 209 219 196 191 187 194 213 190 224 177 194 207 191 183 179 179 178 174 182 186 192 193 194 198 193 206 197 196
201 211 224 217 215 217 122 229 244 238 269 276 260 248 196 207 204 216 187 187 194 173 194 207 213 202 194 212 194 190 188 186 190 186 187 184 187 175 194 187 201 209 195 206
283 220 209 211 215 221 224 256 251 253 253 262 261 231 171 210 218 206 192 202 203 186 199 204 205 218 190 214 199 204 192 193 196 195 194 189 176 173 199 192 189 196 220 194
222 224 210 206 219 217 223 233 236 225 213 253 271 287 137 130 164 222 227 206 210 187 201 203 211 215 217 203 202 214 204 199 199 197 198 199 194 180 202 202 189 160 204 230
221 184 205 216 212 214 221 232 248 4 277 24 315 223 129 94 240 187 217 212 207 212 199 204 203 216 228 196 209 212 208 207 204 205 203 202 200 197 190 204 183 197 186 214
224 190 186 210 213 214 213 228 243 270 261 248 269 152 136 42 52 142 190 199 200 206 208 194 205 205 212 211 218 203 221 210 207 209 208 205 205 205 207 208 201 219 194 195
293 261 209 213 212 229 234 245 236 230 236 267 200 279 119 65 55 65 151 186 207 218 217 219 200 207 206 216 213 205 216 209 210 213 214 213 207 211 216 217 212 221 222 209
272 243 266 200 215 274 214 239 246 257 253 255 5 301 46 87 52 55 147 175 222 226 229 204 199 203 206 213 219 212 214 215 211 212 216 218 217 217 219 219 221 230 229 225
257 284 233 337 219 256 214 266 317 330 314 56 75 253 11 62 70 69 80 142 254 252 214 184 194 203 208 210 219 221 219 222 224 219 219 220 221 222 224 223 229 230 236 236
303 251 266 232 196 202 232 196 267 275 321 353 133 242 245 133 102 72 72 65 219 244 217 186 201 180 206 206 207 226 224 223 229 226 224 221 221 222 222 229 233 236 231 238
260 265 278 272 273 282 298 261 217 246 232 272 237 262 239 163 112 5 321 139 187 172 270 203 211 232 172 181 201 222 229 222 227 230 222 224 226 228 230 235 241 241 238 242
250 268 281 280 245 229 239 254 261 227 246 211 294 265 68 77 15 303 287 209 289 236 270 229 233 229 221 214 220 223 222 225 229 226 227 230 222 223 227 229 234 241 249 250
251 264 274 278 267 260 257 245 258 267 272 88 150 248 317 352 33 12 156 190 220 189 145 142 152 185 227 243 229 229 229 228 224 224 225 220 218 218 220 225 229 235 241 245
261 263 271 264 263 278 257 248 246 249 272 269 313 257 127 329 300 329 155 199 212 219 181 162 116 105 253 244 236 232 233 230 228 226 227 227 227 225 228 232 236 239 242 248
253 254 258 271 253 229 255 229 220 251 276 278 286 297 25 259 304 326 311 236 234 232 228 245 249 45 341 20 280 237 231 241 233 231 226 230 230 234 237 240 243 246 250 253
246 246 248 254 249 251 245 244 230 256 286 242 238 297 118 323 323 308 309 300 270 247 230 247 245 261 285 302 335 252 249 242 239 228 230 235 238 236 242 245 249 253 257 260
231 241 250 249 281 258 261 194 176 257 266 272 243 241 260 288 280 258 283 293 292 279 264 265 244 236 240 250 247 321 327 253 230 231 230 233 234 233 242 244 264 253 262 262
221 230 231 233 247 262 162 182 203 263 212 178 212 241 288 272 245 267 280 282 278 289 291 290 279 243 250 258 261 275 277 343 315 247 235 229 242 234 224 256 254 261 270 262
221 215 236 236 255 253 192 225 255 220 151 199 210 226 268 269 265 264 273 274 268 270 277 283 288 283 281 280 266 281 267 234 279 263 231 219 243 228 276 251 279 277 262 268
236 241 284 280 222 93 165 183 215 223 247 246 243 267 273 267 267 269 271 277 281 266 260 267 271 273 277 280 284 270 283 282 243 230 221 241 238 216 257 253 266 270 263 285
233 230 234 254 253 242 226 242 233 219 224 226 212 246 256 244 277 282 272 271 274 275 272 268 264 262 263 270 271 280 270 265 257 233 234 230 234 241 252 261 262 270 267 283
249 229 221 224 230 219 233 229 238 226 216 207 209 226 270 283 277 276 273 267 268 269 266 264 266 270 260 249 254 249 260 257 247 251 242 246 246 245 244 252 252 273 242 255
245 254 239 249 250 216 249 236 226 219 213 213 221 254 282 288 285 281 271 267 264 257 262 263 270 261 266 263 247 232 236 252 256 255 236 238 238 241 253 247 234 246 240 270